When you browse on this site, cookies collect data to enhance your experience and personalize the content and advertising you see.
Visit our Privacy Policy to learn more. By continuing to use the site, you agree to this use of cookies and data.
  • In Italy
  • List of Countries
  • For 7 days
  • Water Temperature
  • Satellite Maps
  • Weather Map
  • Weather Widgets
  • user-avatar
    Login

    Hourly Weather Annaba

    Today, 18 June, Tuesday

    Time Temperature Precipitation Wind Pressure Humidity
    00:00 +20°C° 0 mm 1 mps 760 mmHg 76%
    01:00 +20°C° 0 mm 1 mps 760 mmHg 76%
    02:00 +20°C° 0 mm 1 mps 760 mmHg 76%
    03:00 +20°C° 0 mm 1 mps 760 mmHg 75%
    04:00 +17°C° 0 mm 0 mps 759 mmHg 75%
    05:00 +18°C° 0 mm 0 mps 759 mmHg 69%
    06:00 +21°C° 0 mm 1 mps 760 mmHg 64%
    07:00 +23°C° 0 mm 1 mps 760 mmHg 59%
    08:00 +24°C° 0 mm 1 mps 760 mmHg 52%
    09:00 +26°C° 0 mm 1 mps 760 mmHg 46%
    10:00 +28°C° 0 mm 1 mps 760 mmHg 39%
    11:00 +29°C° 0 mm 2 mps 760 mmHg 38%
    12:00 +30°C° 0 mm 2 mps 760 mmHg 38%
    13:00 +30°C° 0 mm 3 mps 759 mmHg 37%
    14:00 +30°C° 0 mm 3 mps 759 mmHg 39%
    15:00 +30°C° 0 mm 4 mps 759 mmHg 41%
    16:00 +29°C° 0 mm 4 mps 759 mmHg 44%
    17:00 +28°C° 0 mm 4 mps 759 mmHg 49%
    18:00 +27°C° 0 mm 3 mps 759 mmHg 55%
    19:00 +25°C° 0 mm 3 mps 759 mmHg 60%
    20:00 +24°C° 0 mm 2 mps 759 mmHg 64%
    21:00 +23°C° 0 mm 2 mps 759 mmHg 67%
    22:00 +22°C° 0 mm 1 mps 760 mmHg 71%
    23:00 +22°C° 0 mm 1 mps 759 mmHg 70%

    Tomorrow, 19 June, Wednesday

    Time Temperature Precipitation Wind Pressure Humidity
    00:00 +22°C° 0 mm 1 mps 759 mmHg 68%
    01:00 +22°C° 0 mm 1 mps 759 mmHg 67%
    02:00 +22°C° 0 mm 1 mps 759 mmHg 66%
    03:00 +22°C° 0 mm 1 mps 759 mmHg 65%
    04:00 +21°C° 0 mm 2 mps 758 mmHg 64%
    05:00 +23°C° 0 mm 2 mps 758 mmHg 61%
    06:00 +24°C° 0 mm 2 mps 758 mmHg 57%
    07:00 +25°C° 0 mm 1 mps 758 mmHg 54%
    08:00 +27°C° 0 mm 2 mps 758 mmHg 49%
    09:00 +29°C° 0 mm 2 mps 758 mmHg 44%
    10:00 +31°C° 0 mm 3 mps 759 mmHg 38%
    11:00 +33°C° 0 mm 3 mps 758 mmHg 38%
    12:00 +33°C° 0 mm 3 mps 758 mmHg 37%
    13:00 +33°C° 0 mm 3 mps 758 mmHg 37%
    14:00 +33°C° 0 mm 3 mps 758 mmHg 37%
    15:00 +31°C° 0 mm 3 mps 758 mmHg 38%
    16:00 +31°C° 0 mm 3 mps 758 mmHg 38%
    17:00 +30°C° 0 mm 3 mps 758 mmHg 41%
    18:00 +29°C° 0 mm 2 mps 758 mmHg 43%
    19:00 +28°C° 0 mm 1 mps 758 mmHg 46%
    20:00 +27°C° 0 mm 1 mps 759 mmHg 48%
    21:00 +26°C° 0 mm 1 mps 759 mmHg 49%
    22:00 +25°C° 0 mm 1 mps 759 mmHg 51%
    23:00 +25°C° 0 mm 1 mps 759 mmHg 50%

    Day after tomorrow, 20 June, Thursday

    Time Temperature Precipitation Wind Pressure Humidity
    00:00 +25°C° 0 mm 1 mps 758 mmHg 50%
    01:00 +25°C° 0 mm 1 mps 758 mmHg 49%
    02:00 +26°C° 0 mm 1 mps 758 mmHg 49%
    03:00 +26°C° 0 mm 1 mps 757 mmHg 49%
    04:00 +26°C° 0 mm 2 mps 757 mmHg 48%
    05:00 +27°C° 0.1 mm 2 mps 757 mmHg 49%
    06:00 +27°C° 0.1 mm 3 mps 757 mmHg 49%
    07:00 +28°C° 0.1 mm 4 mps 757 mmHg 49%
    08:00 +30°C° 0.1 mm 3 mps 757 mmHg 43%
    09:00 +34°C° 0.1 mm 2 mps 757 mmHg 38%
    10:00 +36°C° 0.1 mm 2 mps 758 mmHg 33%
    11:00 +36°C° 0 mm 3 mps 758 mmHg 36%
    12:00 +35°C° 0 mm 3 mps 758 mmHg 39%
    13:00 +34°C° 0 mm 4 mps 758 mmHg 43%
    14:00 +33°C° 0 mm 4 mps 757 mmHg 45%
    15:00 +33°C° 0 mm 4 mps 757 mmHg 46%
    16:00 +32°C° 0 mm 4 mps 757 mmHg 48%
    17:00 +30°C° 0 mm 3 mps 757 mmHg 52%
    18:00 +29°C° 0 mm 3 mps 758 mmHg 55%
    19:00 +28°C° 0 mm 3 mps 758 mmHg 59%
    20:00 +27°C° 0 mm 2 mps 758 mmHg 62%
    21:00 +26°C° 0 mm 1 mps 758 mmHg 66%
    22:00 +23°C° 0 mm 0 mps 758 mmHg 70%
    23:00 +23°C° 0 mm 0 mps 758 mmHg 70%

    21 June, Friday

    Time Temperature Precipitation Wind Pressure Humidity
    00:00 +25°C° 0 mm 1 mps 758 mmHg 71%
    01:00 +24°C° 0 mm 1 mps 757 mmHg 72%
    02:00 +24°C° 0 mm 1 mps 757 mmHg 74%
    03:00 +24°C° 0 mm 1 mps 757 mmHg 76%
    04:00 +23°C° 0 mm 1 mps 757 mmHg 78%
    05:00 +22°C° 0 mm 0 mps 757 mmHg 76%
    06:00 +23°C° 0 mm 0 mps 758 mmHg 74%
    07:00 +23°C° 0 mm 0 mps 758 mmHg 72%
    08:00 +25°C° 0 mm 0 mps 758 mmHg 64%
    09:00 +29°C° 0 mm 1 mps 758 mmHg 57%
    10:00 +31°C° 0 mm 1 mps 758 mmHg 49%
    11:00 +32°C° 0 mm 1 mps 758 mmHg 49%
    12:00 +32°C° 0 mm 2 mps 758 mmHg 49%
    13:00 +33°C° 0 mm 3 mps 757 mmHg 48%
    14:00 +33°C° 0 mm 3 mps 757 mmHg 50%
    15:00 +31°C° 0 mm 3 mps 757 mmHg 52%
    16:00 +30°C° 0 mm 3 mps 757 mmHg 54%
    17:00 +30°C° 0.1 mm 2 mps 757 mmHg 56%
    18:00 +29°C° 0.1 mm 2 mps 757 mmHg 58%
    19:00 +28°C° 0.1 mm 1 mps 758 mmHg 61%
    20:00 +27°C° 0.2 mm 1 mps 758 mmHg 66%
    21:00 +25°C° 0.2 mm 1 mps 758 mmHg 71%
    22:00 +24°C° 0.2 mm 1 mps 758 mmHg 76%
    23:00 +24°C° 0 mm 2 mps 758 mmHg 74%

    22 June, Saturday

    Time Temperature Precipitation Wind Pressure Humidity
    00:00 +24°C° 0 mm 2 mps 757 mmHg 73%
    01:00 +24°C° 0 mm 2 mps 757 mmHg 72%
    02:00 +24°C° 0 mm 2 mps 757 mmHg 76%
    03:00 +23°C° 0 mm 1 mps 757 mmHg 80%
    04:00 +23°C° 0 mm 1 mps 757 mmHg 84%
    05:00 +24°C° 0 mm 1 mps 757 mmHg 80%
    06:00 +24°C° 0 mm 2 mps 758 mmHg 77%
    07:00 +25°C° 0 mm 2 mps 758 mmHg 73%
    08:00 +27°C° 0 mm 2 mps 758 mmHg 67%
    09:00 +29°C° 0 mm 2 mps 758 mmHg 60%
    10:00 +31°C° 0 mm 2 mps 758 mmHg 53%
    11:00 +31°C° 0 mm 3 mps 758 mmHg 54%
    12:00 +31°C° 0 mm 3 mps 758 mmHg 54%
    13:00 +33°C° 0 mm 4 mps 758 mmHg 54%
    14:00 +32°C° 0 mm 4 mps 758 mmHg 56%
    15:00 +30°C° 0 mm 4 mps 758 mmHg 58%
    16:00 +30°C° 0 mm 3 mps 757 mmHg 59%
    17:00 +29°C° 0 mm 3 mps 758 mmHg 61%
    18:00 +28°C° 0 mm 2 mps 758 mmHg 64%
    19:00 +27°C° 0 mm 2 mps 758 mmHg 66%
    20:00 +26°C° 0 mm 2 mps 758 mmHg 68%
    21:00 +26°C° 0 mm 2 mps 758 mmHg 70%
    22:00 +25°C° 0 mm 2 mps 758 mmHg 72%
    23:00 +25°C° 0 mm 2 mps 758 mmHg 68%

    23 June, Sunday

    Time Temperature Precipitation Wind Pressure Humidity
    00:00 +26°C° 0 mm 2 mps 758 mmHg 64%
    01:00 +26°C° 0 mm 2 mps 757 mmHg 60%
    02:00 +28°C° 0 mm 2 mps 757 mmHg 51%
    03:00 +29°C° 0 mm 2 mps 757 mmHg 42%
    04:00 +30°C° 0 mm 3 mps 757 mmHg 32%
    05:00 +31°C° 0 mm 3 mps 757 mmHg 30%
    06:00 +33°C° 0 mm 3 mps 758 mmHg 28%
    07:00 +34°C° 0 mm 3 mps 758 mmHg 26%
    08:00 +37°C° 0 mm 4 mps 758 mmHg 22%
    09:00 +41°C° 0 mm 5 mps 758 mmHg 19%
    10:00 +45°C° 0 mm 6 mps 758 mmHg 15%
    11:00 +46°C° 0 mm 5 mps 758 mmHg 16%
    12:00 +46°C° 0 mm 5 mps 759 mmHg 17%
    13:00 +46°C° 0 mm 5 mps 759 mmHg 17%
    14:00 +44°C° 0 mm 4 mps 758 mmHg 20%
    15:00 +42°C° 0 mm 4 mps 758 mmHg 22%
    16:00 +41°C° 0 mm 4 mps 758 mmHg 25%
    17:00 +38°C° 0 mm 3 mps 758 mmHg 28%
    18:00 +36°C° 0 mm 3 mps 758 mmHg 31%
    19:00 +35°C° 0 mm 2 mps 758 mmHg 34%
    20:00 +32°C° 0 mm 2 mps 759 mmHg 35%
    21:00 +31°C° 0 mm 2 mps 759 mmHg 36%
    22:00 +30°C° 0 mm 1 mps 760 mmHg 38%
    23:00 +30°C° 0 mm 1 mps 760 mmHg 35%
    Show more